Location: Hilton Head Island
(32.2163°N, 80.7526°W)
Time: 03:21:09
(UTC-04:00)

Explorer 7 - Pass Details

Date: 18 February 2026
Orbit: 430 x 541 km, 50.2° (Epoch: 11 March)

Event Time Altitude Azimuth Distance (km) Brightness Sun altitude
Rises 14:28:08 0° 237° (WSW) 2,389 10.9 38.9°
Reaches altitude 10° 14:30:15 10° 243° (WSW) 1,533 10.1 38.6°
Maximum altitude 14:33:37 51° 320° (NW) 564 7.3 38.2°
Drops below altitude 10° 14:37:05 10° 38° (NE) 1,582 8.8 37.8°
Sets 14:39:18 0° 43° (NE) 2,476 9.7 37.5°
